Wind_Speed
5 4 7 10 10 6 7 7 12 3 2 2 5 5 15 15 14 15 15 15 16 15 21 25 26 29 32 33 32 31 31 30 27 26 23 19 19 16 15 14 12 12 11 9
4 8 10 7 6 7 8 7 7 1 4 4 1 3 9 16 18 17 16 15 14 16 8 16 22 24 30 35 35 32 32 30 29 28 25 21 17 15 14 11 11 10 10 10
6 4 10 7 5 7 5 9 7 14 7 3 6 3 8 11 8 11 13 12 13 15 12 11 18 25 29 31 36 35 34 33 31 27 24 19 13 10 9 12 11 10 10 10
6 5 9 9 10 8 7 8 8 9 12 7 6 5 8 12 17 14 17 15 16 15 12 13 19 23 26 36 37 36 34 34 33 28 27 24 20 15 14 14 13 14 14 11
7 5 8 5 8 10 9 8 10 7 7 5 3 3 7 13 10 22 20 20 19 18 18 16 19 27 33 35 38 37 35 34 33 30 27 26 22 18 14 13 14 17 16 13
9 3 7 12 5 9 8 7 7 5 4 1 9 9 5 7 24 24 16 20 19 17 17 17 25 27 27 29 35 38 37 34 33 30 28 28 24 20 16 15 16 20 18 16
2 7 3 4 6 1 6 7 1 2 1 6 4 3 12 11 16 23 23 22 21 18 17 16 17 22 26 29 37 39 40 39 36 34 31 30 27 23 19 19 22 21 18 18
7 5 8 4 7 8 7 9 6 7 5 5 4 8 9 21 16 13 9 16 12 17 18 19 20 26 28 31 34 36 37 40 39 37 35 32 28 26 22 20 23 23 20 18
7 7 4 5 5 9 4 4 6 7 2 3 4 7 9 7 8 9 13 11 17 19 20 21 19 29 31 32 37 41 38 39 40 41 38 35 31 27 25 22 23 22 19 17
9 2 7 6 4 3 9 9 4 3 5 4 4 4 6 5 11 9 8 16 18 18 17 18 19 28 33 37 39 38 39 43 42 42 42 39 35 31 27 23 24 23 21 19
7 4 6 6 10 12 3 3 5 5 5 7 4 6 8 10 11 11 14 18 18 18 18 19 19 30 36 37 32 34 36 38 40 44 45 42 39 35 29 26 25 24 21 20
11 9 10 12 4 7 10 11 9 6 5 2 4 7 5 12 6 9 13 15 12 13 17 18 18 25 28 30 32 34 37 35 41 41 43 45 41 38 33 30 27 25 24 23
6 5 7 6 5 1 5 5 5 5 4 8 6 6 3 6 8 9 12 9 9 10 9 11 11 15 22 28 33 34 35 40 36 34 41 42 44 41 38 34 29 26 24 23
13 4 10 17 13 6 5 7 7 7 5 6 7 8 6 10 10 8 9 9 10 12 12 11 11 15 24 28 30 32 33 34 33 34 40 43 48 49 44 33 27 24 23 22
8 10 6 19 12 8 8 9 10 8 7 8 8 10 13 13 13 13 14 7 8 10 10 14 17 14 13 19 24 27 30 31 33 34 37 45 47 36 42 33 19 26 25 24
2 7 9 18 17 15 13 12 9 8 4 5 4 8 9 6 3 6 10 11 12 12 16 13 9 8 9 18 24 25 26 29 30 33 35 26 27 26 27 20 5 36 27 30
2 3 4 14 9 6 6 19 11 7 6 10 9 18 6 6 9 10 10 13 16 16 13 11 12 11 13 23 26 27 32 27 28 29 24 25 30 31 37 26 30 35 33 29
3 0 3 7 5 5 12 7 15 15 6 7 4 6 12 8 9 1 1 10 10 8 8 8 7 8 20 22 25 27 26 28 27 26 25 29 32 36 39 36 31 40 38 36
3 4 4 5 6 4 1 4 6 7 7 2 6 4 4 4 5 5 5 4 6 5 6 7 16 17 16 15 17 20 22 22 24 24 27 30 35 36 39 33 32 31 31 28
2 1 2 1 6 7 5 4 3 1 1 2 2 6 7 3 5 3 5 4 9 8 9 8 5 2 2 5 13 19 21 21 22 22 24 30 32 28 20 17 17 18 19 12
4 4 2 5 2 3 2 8 2 6 5 5 3 3 4 4 3 3 5 9 8 11 13 12 11 6 4 3 6 15 18 19 19 20 22 24 25 21 15 10 14 14 13 15
7 2 2 4 3 0 11 4 5 2 0 7 8 5 14 9 5 10 11 8 12 10 11 17 12 12 9 4 9 13 5 12 23 23 22 22 20 18 16 16 16 17 16 17
6 6 3 1 3 5 7 3 3 3 11 12 12 6 9 9 7 8 7 10 8 8 10 14 14 18 21 4 2 15 13 20 24 26 25 24 22 21 21 23 20 19 17 13
6 1 5 5 3 6 9 8 6 5 7 6 8 11 14 9 9 8 8 8 7 4 7 12 16 13 12 12 12 20 24 25 26 30 29 25 21 21 22 21 21 17 17 11
2 3 6 5 3 2 4 3 6 3 9 13 13 15 12 14 10 8 8 5 5 8 15 13 11 9 15 18 21 24 27 27 30 30 29 25 20 18 17 11 7 9 13 13
3 1 3 6 7 6 6 3 6 7 10 8 14 14 12 12 7 6 9 7 6 5 8 7 9 12 14 19 24 24 28 32 31 24 25 21 19 17 12 8 5 5 7 6
Wind_Direction
187 127 178 187 188 183 146 168 177 111 35 70 184 188 177 185 195 197 196 199 202 204 209 206 205 204 208 211 214 215 216 218 220 219 221 228 233 237 244 246 241 241 245 246
91 201 201 173 160 165 162 149 206 23 135 141 187 287 192 199 203 201 204 210 207 212 180 190 196 196 204 210 213 215 214 216 217 220 219 221 229 241 244 239 231 229 229 224
155 225 146 142 172 141 170 165 169 211 142 84 128 319 191 217 215 218 227 222 217 212 202 194 191 193 203 206 210 213 213 217 218 218 216 218 226 226 220 216 204 208 200 202
213 208 159 151 175 150 162 204 165 140 152 198 163 245 227 204 211 215 221 213 216 213 206 199 194 196 199 210 215 216 217 220 221 221 218 220 221 217 221 214 219 208 198 202
239 170 159 166 191 164 214 158 154 163 165 125 196 102 264 175 222 227 218 213 213 208 202 199 200 201 203 208 214 218 219 222 223 220 221 220 223 227 232 225 216 202 200 207
221 219 168 186 177 182 142 91 55 54 104 130 217 185 251 187 214 230 217 216 208 205 200 202 198 199 204 206 210 216 218 222 219 220 220 218 221 221 224 221 206 197 202 204
319 258 211 152 130 94 83 82 6 48 85 209 210 153 230 216 221 222 210 208 204 198 193 193 189 194 197 197 209 214 217 218 218 218 218 218 221 222 223 215 203 197 204 213
173 236 178 173 167 170 179 155 155 187 180 217 114 208 244 230 230 244 229 213 194 197 195 195 193 193 197 199 206 210 214 215 218 218 219 220 220 222 225 223 211 206 214 220
164 248 283 174 152 144 194 157 187 107 40 93 201 283 310 239 248 219 222 175 196 197 196 196 193 194 197 199 204 209 211 215 218 219 219 216 216 219 215 215 212 214 220 219
209 240 223 242 139 213 164 168 98 356 142 220 267 265 228 244 245 224 216 203 203 201 196 196 194 196 199 204 207 207 211 214 216 220 220 217 214 213 210 209 213 214 211 209
150 134 268 132 210 208 120 160 56 121 134 172 198 256 215 213 219 218 220 212 199 195 193 195 198 198 202 205 204 205 208 210 214 219 219 218 214 209 206 206 208 207 209 214
207 189 216 213 230 191 184 181 163 182 220 213 175 252 230 217 209 221 231 211 200 196 195 195 196 196 201 204 203 204 207 208 215 216 217 217 214 209 206 209 213 215 213 215
186 208 216 306 324 255 195 173 131 114 95 188 182 257 267 255 245 226 222 190 186 182 186 191 185 197 198 202 205 207 207 211 211 208 214 212 214 210 208 209 209 209 211 217
177 160 186 225 228 174 192 178 174 150 146 174 211 232 257 242 226 229 227 201 187 195 189 183 188 199 201 202 203 206 211 211 207 204 209 209 211 212 207 205 207 212 217 219
157 193 201 227 197 180 205 180 169 177 187 173 237 197 233 217 212 210 211 195 166 188 183 196 202 203 196 198 203 209 212 208 204 203 205 212 213 199 203 190 203 239 225 228
2 241 194 232 217 202 222 231 182 195 164 247 287 246 220 241 102 155 193 185 200 205 206 202 193 185 188 194 202 205 208 209 203 206 211 206 196 186 178 169 257 247 235 239
279 188 125 234 193 158 240 224 215 198 189 189 196 232 183 193 206 222 186 188 204 215 203 185 185 194 194 200 203 205 211 207 203 207 206 193 186 173 177 176 205 241 239 243
234 97 161 244 87 174 243 188 206 210 199 195 242 215 187 208 205 213 255 200 202 176 172 185 175 185 216 221 221 223 218 209 200 199 192 190 181 182 182 187 203 215 232 235
236 136 249 164 170 220 105 13 127 158 223 213 257 222 239 128 91 26 357 166 154 171 156 179 190 202 212 219 226 223 218 202 193 191 188 186 187 184 188 214 207 212 224 237
294 183 169 232 146 191 199 303 30 304 216 23 275 254 156 184 130 254 330 82 80 78 64 64 82 65 120 237 221 211 206 189 187 187 186 194 196 196 215 209 183 199 215 227
331 329 60 294 118 272 345 325 283 150 217 12 345 249 155 112 140 141 124 79 80 75 67 66 64 50 352 321 225 216 199 186 180 177 188 184 187 203 207 192 193 188 192 198
193 44 283 281 10 111 360 12 163 190 68 75 50 44 81 71 38 101 78 78 75 75 57 39 53 55 48 350 199 171 159 185 152 153 162 164 161 157 167 169 156 169 181 193
174 178 161 111 275 285 314 339 332 245 87 92 83 64 93 80 44 44 61 63 66 83 77 65 64 55 46 62 146 110 145 152 135 135 134 143 149 154 169 174 183 199 198 221
11 238 107 142 300 330 354 348 354 20 67 82 80 66 58 64 37 37 35 29 37 20 48 64 66 69 69 95 128 144 150 146 143 138 140 143 154 172 188 183 177 212 231 187
239 356 139 77 199 101 19 345 295 16 79 76 65 64 66 64 40 48 41 27 48 46 26 37 84 121 115 122 135 147 149 150 155 160 164 170 183 183 194 211 189 200 203 217
334 206 152 193 208 127 153 89 275 92 75 65 78 60 49 59 56 57 42 15 41 70 95 94 75 93 124 130 146 158 163 167 165 168 173 179 188 195 200 185 173 201 209 218
Height
736 755 766 757 749 747 758 768 770 767 761 774 782 785 779 776 778 780 780 781 782 783 782 789 793 796 799 803 807 810 813 816 819 821 824 826 827 829 830 830 831 833 834 835
747 760 744 739 742 749 756 770 774 765 764 773 785 785 780 777 771 774 777 778 779 779 782 784 789 793 795 797 801 806 809 812 814 817 820 823 826 827 828 828 829 830 831 833
754 740 734 740 750 756 758 768 775 769 771 772 783 794 789 778 775 774 772 771 774 776 779 780 783 787 790 794 796 800 803 807 810 814 818 821 822 823 824 825 826 827 829 830
742 728 734 745 750 749 771 747 752 768 775 802 774 818 794 777 776 771 767 767 767 769 771 774 776 781 785 787 792 795 799 802 806 810 813 815 818 820 821 822 823 824 826 828
742 733 737 744 740 737 750 738 751 760 778 785 788 804 781 775 784 765 757 757 757 758 761 766 770 773 776 781 786 791 794 797 801 805 808 812 815 817 819 820 821 822 824 826
730 713 721 726 725 726 729 746 767 782 791 813 786 788 788 786 757 743 745 746 747 751 755 759 763 768 773 778 782 785 789 792 796 801 803 806 810 813 815 817 818 820 822 824
732 727 714 709 730 726 738 762 801 807 816 816 779 794 764 746 731 725 728 731 734 739 747 751 757 761 766 771 775 779 782 784 788 793 796 800 804 808 810 812 814 817 819 821
758 756 723 711 723 739 746 754 795 807 818 795 784 792 760 716 715 716 719 721 728 733 736 741 745 751 758 763 768 773 775 778 781 786 791 795 799 803 806 809 811 812 815 817
755 751 711 705 707 715 741 758 744 787 792 798 792 764 731 717 719 719 717 721 721 722 726 731 738 743 748 755 758 762 768 772 775 780 784 788 793 797 801 804 808 810 813 816
725 744 717 706 701 708 721 729 760 783 800 802 789 772 764 733 723 716 718 714 711 713 720 724 729 734 739 743 748 756 761 763 767 773 777 782 786 790 795 800 804 805 808 812
716 730 727 713 717 722 731 741 753 761 777 794 799 784 732 720 712 709 704 698 700 705 709 714 718 723 728 733 744 749 753 757 760 764 769 775 780 785 790 793 797 801 805 808
707 717 734 725 702 698 707 725 733 754 773 780 777 766 703 700 699 700 695 692 694 697 700 704 710 717 724 730 737 739 743 749 750 756 763 767 774 780 785 789 793 796 798 801
700 724 734 733 721 703 708 714 725 738 750 770 770 757 700 702 700 697 695 689 692 696 700 704 710 713 717 723 726 730 735 736 743 750 756 761 766 774 777 783 788 792 796 798
675 711 706 716 713 706 714 708 717 722 755 755 750 726 703 700 698 693 689 686 689 690 694 699 704 705 707 711 717 723 727 731 737 742 747 751 755 760 769 780 787 790 795 798
675 698 699 678 688 695 695 698 709 716 714 726 710 722 698 691 687 684 677 682 688 691 695 695 695 697 704 709 713 717 721 726 730 735 738 739 746 759 763 770 782 793 792 795
680 692 695 682 677 683 689 684 695 696 697 704 703 713 678 670 674 676 676 679 682 682 682 686 690 695 699 702 705 710 716 721 726 729 731 741 750 758 768 776 777 789 789 791
687 690 703 695 681 692 706 679 682 682 682 684 708 676 674 675 675 671 673 674 672 670 674 679 682 686 690 695 700 705 708 716 721 725 732 739 745 752 759 766 774 784 786 786
687 695 699 692 692 721 669 655 655 666 670 671 669 665 663 659 654 658 659 664 666 668 672 676 680 684 687 692 696 700 705 710 716 721 727 733 739 744 749 753 754 764 775 777
689 696 700 700 706 679 664 667 664 664 674 665 668 658 657 656 657 665 662 660 664 667 667 671 675 678 685 689 695 698 703 708 713 716 721 728 734 739 745 749 747 757 767 772
684 692 705 704 695 698 672 671 663 667 685 665 662 663 658 659 678 679 666 661 663 667 670 674 680 683 685 690 693 694 697 704 708 713 722 724 731 740 743 750 748 753 762 769
702 703 707 710 691 682 672 670 665 681 682 664 664 661 659 668 666 664 663 663 663 668 676 678 679 686 689 691 694 697 696 698 705 711 721 724 729 736 741 745 749 754 759 763
692 709 708 707 691 685 671 665 669 673 662 667 672 674 667 671 674 667 664 670 669 673 677 681 684 685 685 692 693 690 703 711 703 709 719 725 730 736 744 747 750 752 755 758
692 685 702 706 706 691 681 678 673 672 663 663 669 671 669 672 676 671 674 671 673 673 676 679 681 681 682 697 695 693 704 712 707 713 722 727 730 733 739 741 745 749 746 746
675 675 686 700 691 693 686 679 675 668 669 669 667 670 669 678 678 677 677 677 678 681 678 677 679 685 689 692 698 697 702 702 707 713 719 722 724 728 731 730 731 735 740 740
681 674 679 688 691 686 682 684 685 677 668 669 673 672 679 678 681 681 684 686 685 685 686 685 684 690 690 693 696 696 695 700 706 708 710 712 721 724 730 734 733 734 738 739
691 684 683 683 674 671 678 680 688 677 676 675 676 680 683 684 690 687 686 687 686 687 687 691 690 688 689 688 691 695 697 700 703 707 709 712 719 725 728 731 732 735 736 739